CW8633 Weather Reports


time (UTC)temp
C
wind
direction
speed
KPH
gust
KPH
rain 1hr
cm
rain 24hr
cm
rain mn
cm
humidity
%
barometer
mb
20260505063725 13 165 6.4 9.7 0.00 0.00 0.00 58 1006.0
20260505062732 15 249 6.4 12.9 0.00 0.00 0.00 52 1005.8
20260505061739 15 96 9.7 12.9 0.00 0.00 0.00 47 1005.6
20260505060724 15 70 3.2 6.4 0.00 0.00 0.00 50 1005.7
20260505055733 15 70 3.2 11.3 0.00 0.00 0.00 48 1005.7
20260505054722 15 78 8.0 12.9 0.00 0.00 0.00 49 1005.7
20260505053729 15 84 3.2 9.7 0.00 0.00 0.00 47 1005.7
20260505052734 14 82 4.8 8.0 0.00 0.00 0.00 47 1005.8
20260505051721 14 55 4.8 8.0 0.00 0.00 0.00 47 1005.8
20260505050731 14 53 4.8 8.0 0.00 0.00 0.00 46 1005.8
20260505041731 16 194 1.6 6.4 0.00 0.00 0.00 45 1005.0
20260505040733 16 193 0.0 3.2 0.00 0.00 0.00 44 1004.9
20260505035747 16 193 0.0 3.2 0.00 0.00 0.00 45 1004.9
20260505034733 16 194 3.2 6.4 0.00 0.00 0.00 45 1005.0
20260505033726 15 143 3.2 6.4 0.00 0.00 0.00 46 1004.7
20260505032735 15 132 6.4 8.0 0.00 0.00 0.00 46 1004.7
20260505031723 15 351 3.2 4.8 0.00 0.00 0.00 50 1004.7
20260505030736 15 350 1.6 4.8 0.00 0.00 0.00 46 1004.5
20260505025729 15 350 4.8 6.4 0.00 0.00 0.00 47 1004.4
20260505024736 16 350 3.2 4.8 0.00 0.00 0.00 44 1004.2
20260505023758 17 348 1.6 4.8 0.00 0.00 0.00 40 1004.1
20260505022724 17 11 6.4 12.9 0.00 0.00 0.00 43 1004.0
20260505021733 17 136 1.6 6.4 0.00 0.00 0.00 42 1003.7
20260505020738 18 85 4.8 9.7 0.00 0.00 0.00 38 1003.6
20260505015728 18 82 6.4 8.0 0.00 0.00 0.00 37 1003.7
20260505014733 19 328 3.2 4.8 0.00 0.00 0.00 38 1003.7
20260505013724 20 328 3.2 4.8 0.00 0.00 0.00 35 1003.7
20260505012751 21 328 0.0 4.8 0.00 0.00 0.00 32 1003.8
20260505011754 21 328 3.2 6.4 0.00 0.00 0.00 27 1003.8
20260505010737 22 312 3.2 6.4 0.00 0.00 0.00 26 1003.9
20260505005727 21 34 1.6 4.8 0.00 0.00 0.00 27 1003.9
20260505004736 20 34 3.2 6.4 0.00 0.00 0.00 29 1004.0
20260505003723 20 63 3.2 8.0 0.00 0.00 0.00 34 1004.1
20260505002751 20 63 3.2 12.9 0.00 0.00 0.00 32 1004.4
20260505001738 20 54 8.0 19.3 0.00 0.00 0.00 31 1004.4
20260505000735 19 80 16.1 22.5 0.00 0.00 0.00 30 1004.4
20260504235730 20 85 9.7 19.3 0.00 0.00 0.00 31 1004.4
20260504234734 20 265 14.5 37.0 0.00 0.00 0.00 29 1004.3
20260504233737 19 264 19.3 38.6 0.00 0.00 0.00 31 1004.4
20260504232720 19 267 17.7 37.0 0.00 0.00 0.00 30 1004.3
20260504231731 19 288 17.7 30.6 0.00 0.00 0.00 32 1004.4
20260504230737 19 269 17.7 29.0 0.00 0.00 0.00 34 1004.6
20260504225729 19 302 14.5 37.0 0.00 0.00 0.00 34 1004.6
20260504224736 20 277 20.9 33.8 0.00 0.00 0.00 32 1004.7
20260504223727 22 290 12.9 22.5 0.00 0.00 0.00 27 1004.4
20260504222737 23 261 1.6 12.9 0.00 0.00 0.00 21 1004.2
20260504221721 23 269 6.4 11.3 0.00 0.00 0.00 21 1004.1
20260504220730 23 252 9.7 16.1 0.00 0.00 0.00 23 1004.1
20260504215726 23 202 4.8 14.5 0.00 0.00 0.00 22 1004.3
20260504214730 23 234 3.2 11.3 0.00 0.00 0.00 23 1004.5
20260504213734 23 233 6.4 14.5 0.00 0.00 0.00 25 1004.8
20260504212719 23 278 8.0 12.9 0.00 0.00 0.00 25 1005.0
20260504211729 22 286 4.8 16.1 0.00 0.00 0.00 26 1005.1
20260504210735 22 244 3.2 11.3 0.00 0.00 0.00 29 1005.2
20260504205731 22 188 9.7 12.9 0.00 0.00 0.00 30 1005.4
20260504204740 22 210 6.4 12.9 0.00 0.00 0.00 27 1005.5
20260504203728 22 282 3.2 14.5 0.00 0.00 0.00 32 1005.6
20260504202741 22 119 4.8 16.1 0.00 0.00 0.00 32 1005.7
20260504201729 21 187 6.4 16.1 0.00 0.00 0.00 36 1005.8
20260504200737 21 128 6.4 12.9 0.00 0.00 0.00 34 1006.0
20260504195731 21 192 6.4 14.5 0.00 0.00 0.00 34 1006.2
20260504194722 21 122 3.2 8.0 0.00 0.00 0.00 34 1006.3
20260504193729 21 204 4.8 14.5 0.00 0.00 0.00 34 1006.5
20260504192734 20 135 8.0 12.9 0.00 0.00 0.00 34 1006.6
20260504191721 20 169 3.2 11.3 0.00 0.00 0.00 35 1006.7
20260504190731 20 196 8.0 12.9 0.00 0.00 0.00 34 1006.9
20260504185728 20 235 6.4 11.3 0.00 0.00 0.00 32 1007.1
20260504184755 20 232 6.4 14.5 0.00 0.00 0.00 33 1007.3
20260504183720 20 98 6.4 14.5 0.00 0.00 0.00 31 1007.5
20260504182732 20 252 4.8 14.5 0.00 0.00 0.00 34 1007.6
20260504181758 20 257 4.8 12.9 0.00 0.00 0.00 35 1007.7
20260504180738 20 225 3.2 9.7 0.00 0.00 0.00 32 1007.8
20260504175732 19 150 3.2 8.0 0.00 0.00 0.00 34 1008.0
20260504174740 18 205 1.6 8.0 0.00 0.00 0.00 35 1008.1
20260504173725 18 256 4.8 11.3 0.00 0.00 0.00 37 1008.1
20260504172736 18 188 4.8 8.0 0.00 0.00 0.00 39 1008.2
20260504171725 17 195 3.2 6.4 0.00 0.00 0.00 39 1008.2
20260504170732 17 215 3.2 8.0 0.00 0.00 0.00 37 1008.2
20260504150736 11 254 1.6 4.8 0.00 0.00 0.00 61 1008.7
20260504140732 10 49 1.6 4.8 0.00 0.00 0.00 61 1008.9
20260504130752 6 18 3.2 6.4 0.00 0.00 0.00 65 1008.7
20260504081735 7 17 3.2 6.4 0.00 0.00 0.00 58 1008.2
20260504080722 8 17 3.2 6.4 0.00 0.00 0.00 56 1008.3